Date String (YYYY-MM-DD hh:mm:ss) UTC,Instrument flags,absolute air pressure of the measurement (hPa),sample flow rate (lpm),inlet stack bypass flow (lpm),air temperature of the measurement (°C),ambient temperature measured by the external sensor (°C),aerosol sample conditioner tube jacket temperature (°C),OPC LED temperature (°C),internal box temperature (°C),relative humidity of the measurement (%),span deviation,mass concentration of particles derived from Lorenz-Mie calculation of OPC scattering (μg/m³),mass concentration of particles derived from Lorenz-Mie calculation of OPC scattering (μg/m³),mass concentration of particles derived from Lorenz-Mie calculation of OPC scattering (μg/m³)
DateTimeUTC,F1_M11,P_M11,Q1_M11,Q2_M11,T1_M11,T2_M11,T3_M11,T4_M11,T5_M11,U1_M11,ZSPAN_M11,X0_M11,X2_M11,X1_M11
2024-03-29 03:00:00,SystemResetWarning,0821.2,5.00,000.00,023.5,022.4,000.0,032.2,025.2,11.7,0000.0,0004.92,0002.72,0001.73
2024-03-29 03:01:00,SystemResetWarning,0821.2,5.00,000.00,023.4,022.4,000.0,032.2,025.2,11.7,0000.0,0005.28,0002.77,0001.73
2024-03-29 03:02:00,SystemResetWarning,0821.2,4.99,000.00,023.4,022.4,000.0,032.1,025.2,11.8,0000.0,0005.53,0002.73,0001.73
2024-03-29 03:03:00,SystemResetWarning,0821.3,5.00,000.00,023.4,022.4,000.0,032.1,025.2,11.8,0000.0,0005.57,0002.73,0001.74
2024-03-29 03:04:00,SystemResetWarning,0821.2,5.01,000.00,023.4,022.3,000.0,032.1,025.2,11.8,0000.0,0005.55,0002.73,0001.75
2024-03-29 03:05:00,SystemResetWarning,0821.2,4.99,000.00,023.4,022.3,000.0,032.1,025.1,11.7,0000.0,0005.92,0002.81,0001.76
2024-03-29 03:06:00,SystemResetWarning,0821.2,5.00,000.00,023.4,022.3,000.0,032.1,025.1,11.8,0000.0,0006.83,0002.91,0001.76
2024-03-29 03:07:00,SystemResetWarning,0821.2,5.01,000.00,023.3,022.2,000.0,032.1,025.1,11.9,0000.0,0007.50,0002.92,0001.77
2024-03-29 03:08:00,SystemResetWarning,0821.2,5.00,000.00,023.3,022.2,000.0,032.1,025.1,12.0,0000.0,0007.38,0002.82,0001.76
2024-03-29 03:09:00,SystemResetWarning,0821.3,4.99,000.00,023.3,022.2,000.0,032.0,025.1,12.0,0000.0,0007.35,0002.80,0001.74
2024-03-29 03:10:00,SystemResetWarning,0821.2,5.00,000.00,023.3,022.2,000.0,032.0,025.0,12.0,0000.0,0007.80,0002.87,0001.73
2024-03-29 03:11:00,SystemResetWarning,0821.2,4.99,000.00,023.3,022.1,000.0,032.0,025.0,12.1,0000.0,0007.86,0002.94,0001.75
2024-03-29 03:12:00,SystemResetWarning,0821.2,4.99,000.00,023.3,022.1,000.0,032.0,025.0,12.2,0000.0,0007.75,0002.91,0001.75
2024-03-29 03:13:00,SystemResetWarning,0821.3,5.01,000.00,023.2,022.1,000.0,032.0,025.0,12.2,0000.0,0007.50,0002.91,0001.74
2024-03-29 03:14:00,SystemResetWarning,0821.3,5.01,000.00,023.2,022.1,000.0,032.0,025.0,12.2,0000.0,0007.46,0002.90,0001.75
2024-03-29 03:15:00,SystemResetWarning,0821.3,5.00,000.00,023.2,022.0,000.0,031.9,025.0,12.3,0000.0,0007.47,0002.91,0001.75
2024-03-29 03:16:00,SystemResetWarning,0821.3,4.99,000.00,023.2,022.0,000.0,031.9,024.9,12.2,0000.0,0007.40,0002.86,0001.74
2024-03-29 03:17:00,SystemResetWarning,0821.3,5.00,000.00,023.2,022.0,000.0,031.9,024.9,12.2,0000.0,0006.71,0002.83,0001.75
2024-03-29 03:18:00,SystemResetWarning,0821.3,5.00,000.00,023.1,022.0,000.0,031.9,024.9,12.2,0000.0,0006.06,0002.87,0001.74
2024-03-29 03:19:00,SystemResetWarning,0821.3,5.01,000.00,023.1,022.0,000.0,031.9,024.9,12.2,0000.0,0006.06,0002.91,0001.74
2024-03-29 03:20:00,SystemResetWarning,0821.3,5.00,000.00,023.1,021.9,000.0,031.9,024.9,12.2,0000.0,0006.35,0002.96,0001.74
2024-03-29 03:21:00,SystemResetWarning,0821.3,5.00,000.00,023.1,021.9,000.0,031.8,024.9,12.1,0000.0,0006.16,0002.94,0001.74
2024-03-29 03:22:00,SystemResetWarning,0821.3,5.00,000.00,023.1,021.9,000.0,031.8,024.8,12.1,0000.0,0006.10,0002.87,0001.72
2024-03-29 03:23:00,SystemResetWarning,0821.2,5.00,000.00,023.1,021.9,000.0,031.8,024.8,12.2,0000.0,0006.38,0002.88,0001.72
2024-03-29 03:24:00,SystemResetWarning,0821.3,5.02,000.00,023.0,021.9,000.0,031.8,024.8,12.1,0000.0,0006.42,0002.87,0001.71
2024-03-29 03:25:00,SystemResetWarning,0821.3,5.00,000.00,023.0,021.9,000.0,031.8,024.8,12.2,0000.0,0006.46,0002.90,0001.69
2024-03-29 03:26:00,SystemResetWarning,0821.3,4.99,000.00,023.0,021.8,000.0,031.7,024.8,12.1,0000.0,0006.42,0002.86,0001.67
2024-03-29 03:27:00,SystemResetWarning,0821.3,4.99,000.00,023.0,021.8,000.0,031.7,024.8,12.0,0000.0,0006.53,0002.89,0001.66
2024-03-29 03:28:00,SystemResetWarning,0821.2,5.00,000.00,023.0,021.8,000.0,031.7,024.8,12.0,0000.0,0006.73,0002.91,0001.64
2024-03-29 03:29:00,SystemResetWarning,0821.3,5.00,000.00,023.0,021.8,000.0,031.7,024.8,12.1,0000.0,0006.72,0002.90,0001.64
2024-03-29 03:30:00,SystemResetWarning,0821.3,5.00,000.00,022.9,021.8,000.0,031.7,024.7,12.2,0000.0,0006.70,0002.88,0001.64
2024-03-29 03:31:00,SystemResetWarning,0821.3,5.00,000.00,022.9,021.8,000.0,031.7,024.7,12.2,0000.0,0006.70,0002.91,0001.65
2024-03-29 03:32:00,SystemResetWarning,0821.3,5.00,000.00,022.9,021.8,000.0,031.7,024.7,12.4,0000.0,0006.96,0002.96,0001.66
2024-03-29 03:33:00,SystemResetWarning,0821.3,4.99,000.00,022.9,021.7,000.0,031.6,024.7,12.5,0000.0,0006.84,0003.04,0001.66
2024-03-29 03:34:00,SystemResetWarning,0821.3,5.00,000.00,022.9,021.7,000.0,031.6,024.6,12.5,0000.0,0007.15,0003.12,0001.67
2024-03-29 03:35:00,SystemResetWarning,0821.3,5.00,000.00,022.9,021.7,000.0,031.6,024.6,12.4,0000.0,0007.82,0003.15,0001.68
2024-03-29 03:36:00,SystemResetWarning,0821.3,5.01,000.00,022.8,021.7,000.0,031.6,024.6,12.6,0000.0,0007.85,0003.15,0001.69
2024-03-29 03:37:00,SystemResetWarning,0821.3,5.01,000.00,022.8,021.7,000.0,031.6,024.6,12.7,0000.0,0007.91,0003.18,0001.71
2024-03-29 03:38:00,SystemResetWarning,0821.3,5.00,000.00,022.8,021.6,000.0,031.6,024.6,12.7,0000.0,0007.78,0003.14,0001.71
2024-03-29 03:39:00,SystemResetWarning,0821.3,4.99,000.00,022.8,021.6,000.0,031.5,024.6,12.7,0000.0,0007.70,0003.13,0001.70
2024-03-29 03:40:00,SystemResetWarning,0821.3,5.00,000.00,022.8,021.6,000.0,031.5,024.6,12.8,0000.0,0007.71,0003.13,0001.69
2024-03-29 03:41:00,SystemResetWarning,0821.2,5.00,000.00,022.8,021.6,000.0,031.5,024.6,12.8,0000.0,0007.80,0003.12,0001.68
2024-03-29 03:42:00,SystemResetWarning,0821.2,5.00,000.00,022.8,021.6,000.0,031.5,024.6,12.7,0000.0,0007.93,0003.12,0001.67
2024-03-29 03:43:00,SystemResetWarning,0821.2,5.00,000.00,022.7,021.6,000.0,031.5,024.6,12.8,0000.0,0007.62,0003.07,0001.66
2024-03-29 03:44:00,SystemResetWarning,0821.3,5.01,000.00,022.7,021.6,000.0,031.5,024.6,12.9,0000.0,0007.60,0003.01,0001.66
2024-03-29 03:45:00,SystemResetWarning,0821.2,4.99,000.00,022.7,021.6,000.0,031.5,024.6,12.9,0000.0,0007.50,0002.90,0001.65
2024-03-29 03:46:00,SystemResetWarning,0821.3,5.00,000.00,022.7,021.6,000.0,031.4,024.5,12.9,0000.0,0007.02,0002.80,0001.64
2024-03-29 03:47:00,SystemResetWarning,0821.3,5.00,000.00,022.7,021.6,000.0,031.4,024.5,12.9,0000.0,0006.67,0002.66,0001.63
2024-03-29 03:48:00,SystemResetWarning,0821.3,5.00,000.00,022.7,021.6,000.0,031.4,024.5,13.1,0000.0,0006.47,0002.60,0001.62
2024-03-29 03:49:00,SystemResetWarning,0821.3,5.00,000.00,022.7,021.6,000.0,031.4,024.5,13.2,0000.0,0006.86,0002.67,0001.63
2024-03-29 03:50:00,SystemResetWarning,0821.3,4.99,000.00,022.7,021.6,000.0,031.4,024.5,13.2,0000.0,0006.94,0002.69,0001.62
2024-03-29 03:51:00,SystemResetWarning,0821.3,4.99,000.00,022.7,021.6,000.0,031.4,024.5,13.0,0000.0,0007.63,0002.65,0001.61
2024-03-29 03:52:00,SystemResetWarning,0821.3,5.00,000.00,022.7,021.6,000.0,031.4,024.4,13.1,0000.0,0007.64,0002.60,0001.61
2024-03-29 03:53:00,SystemResetWarning,0821.3,5.00,000.00,022.6,021.6,000.0,031.4,024.4,13.1,0000.0,0007.52,0002.56,0001.61
2024-03-29 03:54:00,SystemResetWarning,0821.3,5.00,000.00,022.6,021.6,000.0,031.3,024.5,13.2,0000.0,0007.86,0002.60,0001.61
2024-03-29 03:55:00,SystemResetWarning,0821.3,4.99,000.00,022.6,021.6,000.0,031.3,024.5,13.2,0000.0,0007.84,0002.62,0001.60
2024-03-29 03:56:00,SystemResetWarning,0821.3,5.00,000.00,022.6,021.6,000.0,031.3,024.5,13.3,0000.0,0007.67,0002.64,0001.60
2024-03-29 03:57:00,SystemResetWarning,0821.3,5.00,000.00,022.7,021.7,000.0,031.3,024.5,13.4,0000.0,0007.42,0002.70,0001.60
2024-03-29 03:58:00,SystemResetWarning,0821.3,5.00,000.00,022.7,021.7,000.0,031.3,024.5,13.4,0000.0,0007.52,0002.78,0001.61
2024-03-29 03:59:00,SystemResetWarning,0821.3,5.00,000.00,022.7,021.8,000.0,031.3,024.5,13.2,0000.0,0007.61,0002.83,0001.61
